Location: Home
(42.5358°N, 72.7383°W)
Time: 00:35:10
(UTC-04:00)

FENGYUN 1C DEB - Visible Passes

Search period start: 16 April 2024 00:00
Search period end: 26 April 2024 00:00
Orbit: 853 x 932 km, 98.9° (Epoch: 10 April)

Date Brightness Start Highest point End Pass type
(mag) Time Alt. Az. Time Alt. Az. Time Alt. Az.
16 Apr ? 20:18:42 10° S 20:24:12 68° WSW 20:29:43 10° NNW visible
17 Apr ? 20:19:17 10° S 20:24:46 67° WSW 20:30:17 10° NNW visible
18 Apr ? 20:19:51 10° S 20:25:20 66° WSW 20:30:51 10° NNW visible
19 Apr ? 20:20:26 10° S 20:25:54 66° WSW 20:31:25 10° NNW visible
20 Apr ? 20:21:00 10° S 20:26:28 65° WSW 20:31:59 10° NNW visible
21 Apr ? 20:21:35 10° S 20:27:02 64° WSW 20:32:32 10° NNW visible
22 Apr ? 20:22:09 10° S 20:27:36 63° WSW 20:33:06 10° NNW visible
23 Apr ? 20:22:44 10° S 20:28:10 63° WSW 20:33:41 10° NNW visible
24 Apr ? 20:23:19 10° S 20:28:45 62° WSW 20:34:14 10° NNW visible
25 Apr ? 20:23:53 10° S 20:29:19 61° WSW 20:34:48 10° NNW visible
